Weather History for Crystal River, FL

Change the Weather History Date:

Thursday, January 3, 2013

  Actual Average (KBKV) Record (KBKV)
Temperature  
Mean Temperature 58 °F -  
Max Temperature 64 °F 67 °F 82 °F (2000)
Min Temperature 51 °F 42 °F 24 °F (2012)
Degree Days  
Heating Degree Days 6    
Growing Degree Days 8 (Base 50)    
Moisture  
Dew Point 60 °F    
Average Humidity 99    
Maximum Humidity 100    
Minimum Humidity 94    
Precipitation  
Precipitation 0.12 in - - ()
Sea Level Pressure  
Sea Level Pressure 30.12 in    
Wind  
Wind Speed 2 mph (NE)    
Max Wind Speed 12 mph    
Max Gust Speed 21 mph    
Visibility 5 miles    
Events Fog , Rain    
Averages and records for this station are not official NWS values.
T = Trace of Precipitation, MM = Missing Value Source: NWS Daily Summary

Daily Weather History Graph

Daily Weather History Graph

Search for Another Location

Airport:

Trip Planner

Search our weather history database for the weather conditions in past years. The results will help you decide how hot, cold, wet, or windy it might be!

Date:

Astronomy

Jan. 03, 2013 Rise Set
Actual Time 7:24 AM EST 5:45 PM EST
Civil Twilight 6:58 AM EST 6:11 PM EST
Nautical Twilight 6:28 AM EST 6:41 PM EST
Astronomical Twilight 6:00 AM EST 7:10 PM EST
Moon 11:46 PM EST (1/3) 11:06 AM EST (1/3)
Length of Visible Light 11h 13m
Length of Day
10h 21m
Waning Gibbous, 65% of the Moon is Illuminated
Jan 3
Waning Gibbous
Jan 4
Last Quarter
Jan 11
New
Jan 18
First Quarter
Jan 26
Full

Hourly Weather History & Observations

Time (EST) Temp. Dew Point Humidity Pressure Visibility Wind Dir Wind Speed Gust Speed Precip Events Conditions
12:15 AM 64.4 °F 64.4 °F 100% 30.07 in 0.2 mi Calm Calm - N/A Fog Fog
12:35 AM 64.4 °F 64.4 °F 100% 30.06 in 0.5 mi Calm Calm - N/A Fog Fog
12:55 AM 62.6 °F 62.6 °F 100% 30.06 in 0.8 mi Calm Calm - N/A   Overcast
1:15 AM 62.6 °F 62.6 °F 100% 30.06 in 0.8 mi Calm Calm - N/A   Overcast
1:35 AM 62.6 °F 62.6 °F 100% 30.06 in 0.8 mi Calm Calm - N/A   Overcast
1:55 AM 62.6 °F 62.6 °F 100% 30.06 in 0.5 mi Calm Calm - N/A Fog Fog
2:15 AM 62.6 °F 62.6 °F 100% 30.05 in 0.5 mi Calm Calm - N/A Fog Fog
2:35 AM 62.6 °F 62.6 °F 100% 30.06 in 0.5 mi Calm Calm - N/A Fog Fog
2:55 AM 62.6 °F 62.6 °F 100% 30.06 in 0.5 mi North 4.6 mph - N/A Fog Fog
3:15 AM 62.6 °F 62.6 °F 100% 30.06 in 0.5 mi Calm Calm - N/A Fog Fog
3:35 AM 62.6 °F 62.6 °F 100% 30.06 in 0.2 mi Calm Calm - N/A Fog Fog
3:55 AM 62.6 °F 62.6 °F 100% 30.06 in 0.2 mi Calm Calm - N/A Fog Fog
4:15 AM 62.6 °F 62.6 °F 100% 30.05 in 0.2 mi Calm Calm - N/A Fog Fog
4:35 AM 62.6 °F 62.6 °F 100% 30.05 in 0.2 mi Calm Calm - N/A Fog Fog
4:55 AM 62.6 °F 62.6 °F 100% 30.05 in 0.5 mi Calm Calm - N/A Fog Fog
5:15 AM 62.6 °F 62.6 °F 100% 30.04 in 0.8 mi ESE 3.5 mph - N/A   Overcast
5:35 AM 62.6 °F 62.6 °F 100% 30.05 in 1.2 mi Calm Calm - N/A   Overcast
5:55 AM 62.6 °F 62.6 °F 100% 30.07 in 1.5 mi Calm Calm - N/A   Overcast
6:15 AM 62.6 °F 62.6 °F 100% 30.07 in 1.0 mi Calm Calm - N/A   Overcast
6:35 AM 62.6 °F 62.6 °F 100% 30.07 in 2.5 mi Calm Calm - N/A   Overcast
6:55 AM 62.6 °F 62.6 °F 100% 30.08 in 2.5 mi Calm Calm - N/A   Overcast
7:15 AM 62.6 °F 62.6 °F 100% 30.09 in 3.0 mi Calm Calm - N/A   Overcast
7:55 AM 62.6 °F 62.6 °F 100% 30.10 in 1.5 mi Calm Calm - N/A   Overcast
8:15 AM 62.6 °F 62.6 °F 100% 30.09 in 1.8 mi East 3.5 mph - N/A   Overcast
8:35 AM 62.6 °F 62.6 °F 100% 30.08 in 1.8 mi East 5.8 mph - N/A   Overcast
8:55 AM 62.6 °F 62.6 °F 100% 30.10 in 3.0 mi ESE 3.5 mph - N/A   Overcast
9:15 AM 62.6 °F 62.6 °F 100% 30.12 in 2.0 mi Calm Calm - N/A   Overcast
9:35 AM 64.4 °F 64.4 °F 100% 30.12 in 3.0 mi ENE 3.5 mph - N/A   Overcast
9:55 AM 64.4 °F 64.4 °F 100% 30.13 in 3.0 mi Calm Calm - N/A   Overcast
10:35 AM 64.4 °F 64.4 °F 100% 30.13 in 4.0 mi East 3.5 mph - N/A   Overcast
10:55 AM 64.4 °F 64.4 °F 100% 30.13 in 4.0 mi Calm Calm - N/A   Overcast
11:15 AM 64.4 °F 64.4 °F 100% 30.12 in 3.0 mi East 3.5 mph - N/A Rain Light Rain
11:35 AM 64.4 °F 64.4 °F 100% 30.12 in 3.0 mi NNE 3.5 mph - N/A   Drizzle
11:55 AM 64.4 °F 64.4 °F 100% 30.12 in 2.5 mi NNE 3.5 mph - N/A   Heavy Drizzle
12:15 PM 64.4 °F 64.4 °F 100% 30.11 in 3.0 mi ENE 4.6 mph - N/A   Light Drizzle
12:35 PM 64.4 °F 64.4 °F 100% 30.09 in 4.0 mi ENE 3.5 mph - N/A   Light Drizzle
12:55 PM 64.4 °F 64.4 °F 100% 30.09 in 5.0 mi Calm Calm - N/A   Overcast
1:15 PM 64.4 °F 64.4 °F 100% 30.08 in 7.0 mi NE 3.5 mph - N/A   Overcast
1:35 PM 64.4 °F 64.4 °F 100% 30.08 in 5.0 mi North 10.4 mph - N/A   Overcast
1:55 PM 62.6 °F 60.8 °F 94% 30.09 in 4.0 mi North 10.4 mph - N/A   Drizzle
2:35 PM 60.8 °F 59.0 °F 94% 30.10 in 5.0 mi NNE 8.1 mph 18.4 mph 0.03 in Rain Light Rain
2:55 PM 59.0 °F 59.0 °F 100% 30.11 in 5.0 mi NNE 8.1 mph - 0.04 in   Drizzle
3:15 PM 59.0 °F 59.0 °F 100% 30.11 in 7.0 mi NNE 9.2 mph - N/A   Light Drizzle
3:35 PM 59.0 °F 57.2 °F 94% 30.11 in 10.0 mi NNE 10.4 mph 17.3 mph N/A   Overcast
3:55 PM 59.0 °F 57.2 °F 94% 30.11 in 10.0 mi NNE 11.5 mph 18.4 mph N/A   Light Drizzle
4:15 PM 59.0 °F 57.2 °F 94% 30.12 in 10.0 mi NNE 8.1 mph - N/A   Light Drizzle
4:35 PM 55.4 °F 53.6 °F 94% 30.13 in 10.0 mi NNE 10.4 mph 20.7 mph N/A   Drizzle
4:55 PM 55.4 °F 53.6 °F 94% 30.14 in 10.0 mi NE 8.1 mph - N/A   Light Drizzle
5:15 PM 55.4 °F 53.6 °F 94% 30.14 in 10.0 mi NE 8.1 mph - N/A   Drizzle
5:35 PM 55.4 °F 53.6 °F 94% 30.15 in 7.0 mi NNE 5.8 mph - 0.01 in Rain Rain
5:55 PM 53.6 °F 53.6 °F 100% 30.16 in 7.0 mi NE 4.6 mph - 0.03 in   Heavy Drizzle
6:15 PM 53.6 °F 53.6 °F 100% 30.16 in 7.0 mi NE 5.8 mph - 0.01 in   Drizzle
6:35 PM 55.4 °F 53.6 °F 94% 30.17 in 5.0 mi NE 3.5 mph - 0.02 in   Heavy Drizzle
6:55 PM 53.6 °F 53.6 °F 100% 30.17 in 7.0 mi NE 4.6 mph - 0.03 in   Drizzle
7:15 PM 53.6 °F 53.6 °F 100% 30.17 in 7.0 mi ENE 4.6 mph - 0.01 in   Drizzle
7:35 PM 53.6 °F 53.6 °F 100% 30.18 in 10.0 mi NE 5.8 mph - 0.01 in   Drizzle
8:15 PM 53.6 °F 53.6 °F 100% 30.19 in 10.0 mi NE 4.6 mph - N/A   Overcast
8:35 PM 53.6 °F 53.6 °F 100% 30.19 in 10.0 mi ENE 5.8 mph - N/A   Overcast
8:55 PM 55.4 °F 53.6 °F 94% 30.19 in 10.0 mi ENE 5.8 mph - N/A   Overcast
9:15 PM 55.4 °F 53.6 °F 94% 30.21 in 10.0 mi NNE 5.8 mph - N/A   Drizzle
9:35 PM 55.4 °F 53.6 °F 94% 30.22 in 5.0 mi NNE 3.5 mph - 0.01 in   Heavy Drizzle
9:55 PM 55.4 °F 55.4 °F 100% 30.22 in 5.0 mi NNE 3.5 mph - 0.01 in   Drizzle
10:15 PM 55.4 °F 55.4 °F 100% 30.22 in 7.0 mi NNE 5.8 mph - N/A   Light Drizzle
10:35 PM 55.4 °F 55.4 °F 100% 30.21 in 10.0 mi NE 5.8 mph - N/A   Overcast
10:55 PM 55.4 °F 55.4 °F 100% 30.21 in 10.0 mi NE 8.1 mph - N/A   Overcast
11:15 PM 55.4 °F 55.4 °F 100% 30.22 in 10.0 mi NNE 9.2 mph - N/A   Overcast
11:35 PM 53.6 °F 53.6 °F 100% 30.22 in 10.0 mi North 8.1 mph - N/A   Overcast
11:55 PM 51.8 °F 51.8 °F 100% 30.23 in 7.0 mi North 10.4 mph 18.4 mph N/A   Overcast